Hourly Data Report for October 12, 2016

All times are specified in Local Standard Time (LST). Add 1 hour to adjust for Daylight Saving Time where and when it is observed.

MONCTON INTL A
NEW BRUNSWICK

46°06'44.000" N
64°40'43.000" W
70.70 m
8103201
71705
YQM

Download Data

Hourly Data (October 2016)
Hourly Data Report for October 12, 2016
Temp Definition
°C
Dew Point Temp Definition
°C
Rel Hum Definition
%
Wind Dir Definition
10's deg

Wind Spd Definition
km/h
Visibility Definition
km
Stn Press Definition
kPa
Hmdx Definition


Wind Chill Definition


Weather Definition


TIME
00:00 Legend Double Dagger 4.0 2.7 91 21 9 24.1 101.98     LegendNANA
01:00 Legend Double Dagger 3.7 2.5 92 24 13 24.1 101.97     LegendNANA
02:00 Legend Double Dagger 3.3 2.4 94 21 11 24.1 101.98     Clear
03:00 Legend Double Dagger 3.7 1.9 88 23 13 24.1 101.95     LegendNANA
04:00 Legend Double Dagger 2.7 1.7 93 21 11 24.1 101.97     LegendNANA
05:00 Legend Double Dagger 2.4 1.5 94 20 13 24.1 101.98     Clear
06:00 Legend Double Dagger 3.1 1.9 92 23 12 24.1 101.97     LegendNANA
07:00 Legend Double Dagger 2.2 1.5 95 20 10 24.1 102.00     LegendNANA
08:00 Legend Double Dagger 5.5 3.2 85 21 9 24.1 102.03     Mainly Clear
09:00 Legend Double Dagger 9.4 5.2 75 22 7 24.1 102.03     LegendNANA
10:00 Legend Double Dagger 12.9 7.2 68 22 8 24.1 102.04     LegendNANA
11:00 Legend Double Dagger 15.3 7.9 61 23 9 24.1 102.00     Mostly Cloudy
12:00 Legend Double Dagger 17.8 7.4 50 21 10 24.1 101.97     LegendNANA
13:00 Legend Double Dagger 18.5 10.2 58 18 14 24.1 101.90     LegendNANA
14:00 Legend Double Dagger 18.6 10.0 57 17 12 24.1 101.86     Mostly Cloudy
15:00 Legend Double Dagger 17.5 9.5 59 16 16 24.1 101.82     LegendNANA
16:00 Legend Double Dagger 16.4 8.7 60 16 22 24.1 101.81     LegendNANA
17:00 Legend Double Dagger 13.7 6.4 61 17 14 24.1 101.78     Mostly Cloudy
18:00 Legend Double Dagger 12.9 3.9 54 16 19 24.1 101.77     LegendNANA
19:00 Legend Double Dagger 10.9 4.0 62 16 5 24.1 101.78     LegendNANA
20:00 Legend Double Dagger 9.7 4.5 70 20 12 24.1 101.77     Mainly Clear
21:00 Legend Double Dagger 9.4 4.0 69 17 11 24.1 101.75     LegendNANA
22:00 Legend Double Dagger 9.0 4.6 74 19 12 24.1 101.73     LegendNANA
23:00 Legend Double Dagger 8.4 4.3 75 19 12 24.1 101.69     Mainly Clear

Notes on Data Quality.

Legend

  • E = Estimated
  • M = Missing
  • NA = Not Available
  • ‡ = Partner data that is not subject to review by the National Climate Archives
Date modified: